Flag for Austria Weather past 2 weeks in Graz, Styria, Austria

Now
27 °F

Overcast.


Feels Like: 27 °F
Forecast: 19 / 30 °F
Wind: 2 mph from Northwest

Location: Graz-Thalerhof-Flughafen

Current Time: Dec 27, 2014 at 1:18:15 AM

Latest Report: Dec 27, 2014 at 12:50 AM


Visibility: N/A

Pressure: 30.15 "Hg

Humidity: 86%

Dew point: 23 °F

Location of GrazLocation

Historic Weather in Graz — Graph

°F

Graz temperature yesterday

Maximum temperature yesterday: 41 °F (at 12:50 PM)
Minimum temperature yesterday: 23 °F (at 10:50 PM)
Average temperature yesterday: 31 °F

Past Weeks' High & Low Weather Summary

 TemperatureHumidityPressure
High55 °F (Dec 19, 1:50 PM)100% (Dec 12, 12:20 AM)30.42 "Hg (Dec 12, 12:20 AM)
Low21 °F (Dec 24, 5:50 AM)35% (Dec 21, 1:50 PM)29.86 "Hg (Dec 16, 2:20 PM)
Average35 °F90%30.08 "Hg
* Reported Dec 11 11:20 PM — Dec 26 11:50 PM, Graz, Weather by CustomWeather, © 2014

Note: Actual official high and low records may vary slightly from our data, if they occured in-between our weather recording intervals... More about our weather records

Advertising

Graz weather history for previous 24 hours

 ConditionsComfort  
Time TempWeatherWind HumidityBarometerVisibility
11:50 PM
Dec 26
25 °FPassing clouds.2 mph86%30.18 "HgN/A
11:20 PM25 °FPassing clouds.1 mph86%30.18 "HgN/A
10:50 PM23 °FPassing clouds.1 mph80%30.18 "HgN/A
10:20 PM25 °FPassing clouds.2 mph80%30.18 "HgN/A
9:50 PM25 °FPassing clouds.1 mph80%30.18 "HgN/A
9:20 PM27 °FPassing clouds.2 mph80%30.21 "HgN/A
8:50 PM25 °FPassing clouds.2 mph74%30.21 "HgN/A
8:20 PM28 °FPassing clouds.3 mph74%30.21 "HgN/A
7:50 PM28 °FPassing clouds.3 mph69%30.18 "HgN/A
7:20 PM30 °FPassing clouds.5 mph69%30.21 "HgN/A
6:50 PM28 °FPassing clouds.2 mph74%30.21 "HgN/A
6:20 PM28 °FPassing clouds.3 mph74%30.21 "HgN/A
5:50 PM30 °FPassing clouds.1 mph64%30.21 "HgN/A
5:20 PM30 °FPassing clouds.2 mph59%30.21 "HgN/A
4:50 PM30 °FPassing clouds.7 mph64%30.18 "HgN/A
4:20 PM36 °FPassing clouds.9 mph52%30.18 "HgN/A
3:50 PM39 °FPassing clouds.12 mph45%30.18 "HgN/A
3:20 PM41 °FPassing clouds.8 mph49%30.18 "HgN/A
2:50 PM39 °FPassing clouds.10 mph52%30.18 "HgN/A
2:20 PM41 °FPassing clouds.12 mph49%30.18 "HgN/A
1:50 PM41 °FScattered clouds.12 mph45%30.18 "HgN/A
1:20 PM39 °FScattered clouds.16 mph52%30.18 "HgN/A
12:50 PM41 °FScattered clouds.2 mph66%30.18 "HgN/A
12:20 PM39 °FScattered clouds.5 mph81%30.18 "HgN/A
11:50 AM34 °FPassing clouds.2 mph93%30.18 "HgN/A
11:20 AM30 °FSnow. Cloudy.3 mph100%30.21 "Hg1 mi
10:50 AM32 °FSnow. Ice fog.5 mph100%30.21 "HgN/A
10:20 AM32 °FMixture of precip. Passing clouds.3 mph93%30.21 "HgN/A
9:50 AM28 °FLight fog.3 mph100%30.21 "Hg1 mi
9:20 AM27 °FScattered clouds.3 mph100%30.21 "Hg1 mi
8:50 AM27 °FScattered clouds.1 mph100%30.21 "Hg1 mi
8:20 AM27 °FScattered clouds.3 mph100%30.21 "Hg1 mi
7:50 AM25 °FIce fog.2 mph100%30.21 "Hg0 mi
7:20 AM27 °FPassing clouds.2 mph100%30.18 "Hg0 mi
6:50 AM25 °FLight fog.2 mph100%30.15 "Hg1 mi
6:20 AM25 °FSnow. Overcast.1 mph100%30.15 "Hg2 mi
5:50 AM27 °FSnow. Overcast.3 mph100%30.15 "Hg4 mi
5:20 AM25 °FCold.2 mph100%30.15 "Hg4 mi
4:50 AM28 °FSnow. Overcast.1 mph100%30.15 "Hg4 mi
3:20 AM30 °FLight freezing rain. Overcast.2 mph100%30.15 "Hg3 mi
2:50 AM30 °FPassing clouds.5 mph93%30.15 "HgN/A
2:20 AM30 °FClear.2 mph100%30.15 "Hg10 mi
1:50 AM34 °FClear.6 mph93%30.15 "Hg10 mi
1:20 AM32 °FPassing clouds.3 mph87%30.15 "HgN/A
Weather by CustomWeather, © 2014

See weather overviewHow to use our weather pages